Tucson Davis Monthan, AZ

8:31 PM MST on June 24, 2018 (GMT -0700)
Davis-Monthan Air Force Base

Weather History for KDMA - December, 2017

Change the Weather History Date:

Monday, December 18, 2017

  Actual Average Record
Temperature  
Mean Temperature 54 °F -  
Max Temperature 63 °F 66 °F 80 °F (1950)
Min Temperature 45 °F 40 °F 24 °F (1996)
Degree Days  
Heating Degree Days 10    
Growing Degree Days 4 (Base 50)    
Moisture  
Dew Point 42 °F    
Average Humidity 71    
Maximum Humidity 89    
Minimum Humidity 46    
Precipitation  
Precipitation 0.01 in - - ()
Sea Level Pressure  
Sea Level Pressure 30.07 in    
Wind  
Wind Speed 4 mph (SE)    
Max Wind Speed 10 mph    
Max Gust Speed -    
Visibility 10 miles    
Events Rain    
Averages and records for this station are not official NWS values.
T = Trace of Precipitation, MM = Missing Value Source: NWS Daily Summary

Daily Weather History Graph

Daily Weather History Graph

Search for Another Location

Airport or City:

Astronomy

Dec. 18, 2017 Rise Set
Actual Time 7:18 AM MST 5:21 PM MST
Civil Twilight 6:51 AM MST 5:48 PM MST
Nautical Twilight 6:21 AM MST 6:19 PM MST
Astronomical Twilight 5:51 AM MST 6:49 PM MST
Moon 7:28 AM MST (12/18) 6:02 PM MST (12/18)
Length of Visible Light 10h 56m
Length of Day
10h 02m
New Moon, 0% of the Moon is Illuminated
Dec 18
New Moon
Dec 26
First Quarter
Jan 1
Full
Jan 8
Last Quarter
Jan 16
New

Hourly Weather History & Observations

Time (MST) Temp. Windchill Dew Point Humidity Pressure Visibility Wind Dir Wind Speed Gust Speed Precip Events Conditions
12:58 AM 48.2 °F - 41.7 °F 78% 29.99 in 10.0 mi SE 3.5 mph - N/A   Overcast
1:58 AM 47.7 °F - 41.2 °F 78% 29.98 in 10.0 mi SE 4.6 mph - N/A   Overcast
2:58 AM 46.0 °F 43.9 °F 40.3 °F 80% 30.00 in 10.0 mi SE 4.6 mph - N/A   Mostly Cloudy
3:58 AM 46.2 °F 41.7 °F 40.5 °F 80% 30.00 in 10.0 mi SE 9.2 mph - N/A   Partly Cloudy
4:58 AM 47.5 °F - 40.6 °F 77% 30.01 in 10.0 mi SE 9.2 mph - N/A   Overcast
5:58 AM 47.7 °F - 40.8 °F 77% 30.03 in 10.0 mi SE 10.4 mph - N/A   Overcast
6:37 AM 48.2 °F - 41.0 °F 76% 30.05 in 10.0 mi SE 8.1 mph - N/A   Light Drizzle
6:58 AM 48.0 °F - 41.5 °F 78% 30.06 in 10.0 mi SSE 10.4 mph - 0.00 in Rain Light Rain
7:58 AM 46.6 °F - 42.3 °F 85% 30.09 in 10.0 mi Calm Calm - 0.01 in Rain Light Rain
8:15 AM 46.4 °F - 42.8 °F 87% 30.09 in 10.0 mi Calm Calm - N/A   Overcast
8:58 AM 47.3 °F - 44.2 °F 89% 30.09 in 10.0 mi SSE 4.6 mph - 0.00 in   Overcast
9:58 AM 48.7 °F - 45.0 °F 87% 30.12 in 10.0 mi SE 5.8 mph - N/A   Overcast
10:58 AM 52.2 °F - 46.2 °F 80% 30.12 in 10.0 mi ESE 8.1 mph - N/A   Mostly Cloudy
11:58 AM 54.7 °F - 43.5 °F 66% 30.09 in 10.0 mi Calm Calm - N/A   Clear
12:58 PM 60.3 °F - 43.5 °F 54% 30.06 in 10.0 mi Calm Calm - N/A   Scattered Clouds
1:58 PM 63.1 °F - 43.2 °F 48% 30.04 in 10.0 mi Calm Calm - N/A   Clear
2:58 PM 62.4 °F - 41.4 °F 46% 30.06 in 10.0 mi Calm Calm - N/A   Mostly Cloudy
3:58 PM 58.8 °F - 40.3 °F 50% 30.06 in 10.0 mi Calm Calm - N/A   Overcast
4:58 PM 58.3 °F - 41.2 °F 53% 30.06 in 10.0 mi NNW 4.6 mph - N/A   Partly Cloudy
5:58 PM 55.9 °F - 42.3 °F 60% 30.08 in 10.0 mi Calm Calm - N/A   Overcast
6:58 PM 54.7 °F - 41.0 °F 60% 30.09 in 10.0 mi Calm Calm - N/A   Overcast
7:58 PM 53.6 °F - 42.1 °F 65% 30.12 in 10.0 mi NNW 3.5 mph - N/A   Overcast
8:58 PM 52.3 °F - 41.7 °F 67% 30.12 in 10.0 mi Calm Calm - N/A   Overcast
9:58 PM 49.1 °F - 39.0 °F 68% 30.13 in 10.0 mi West 4.6 mph - N/A   Clear
10:58 PM 47.8 °F - 39.2 °F 72% 30.14 in 10.0 mi WSW 6.9 mph - N/A   Clear
11:58 PM 45.5 °F - 39.7 °F 80% 30.14 in 10.0 mi Calm Calm - N/A   Clear